Wetterdaten: aktuell Sonntag, 26.05.2019 02:50
Datum Zeit Temp. A. Temp. 2 Feuchte A. Luftdruck Regen Wind Richtung Richtung Sonnenschein Windben
26.05.2019 02:50 8,4 C 8,3 C 90 % 1014,1 hPa 0,0 l/m 0,0 km/h (0 Bft) SW 225 0 min 3,2 km/h (1 Bft)
26.05.2019 02:45 8,4 C 7,8 C 90 % 1014,2 hPa 0,0 l/m 0,0 km/h (0 Bft) N 0 0 min 0,0 km/h (0 Bft)
26.05.2019 02:40 8,4 C 7,8 C 89 % 1014,3 hPa 0,0 l/m 0,0 km/h (0 Bft) N 0 0 min 0,0 km/h (0 Bft)
26.05.2019 02:35 8,4 C 7,2 C 89 % 1014,4 hPa 0,0 l/m 0,0 km/h (0 Bft) N 0 0 min 0,0 km/h (0 Bft)
26.05.2019 02:30 8,5 C 7,2 C 89 % 1014,4 hPa 0,0 l/m 0,0 km/h (0 Bft) SW 225 0 min 4,8 km/h (1 Bft)
26.05.2019 02:25 8,6 C 7,2 C 88 % 1014,5 hPa 0,0 l/m 1,6 km/h (1 Bft) SW 225 0 min 3,2 km/h (1 Bft)
26.05.2019 02:20 8,7 C 7,2 C 88 % 1014,6 hPa 0,0 l/m 1,6 km/h (1 Bft) SW 225 0 min 3,2 km/h (1 Bft)
26.05.2019 02:15 8,8 C 7,8 C 88 % 1014,8 hPa 0,0 l/m 1,6 km/h (1 Bft) SW 225 0 min 6,4 km/h (2 Bft)
26.05.2019 02:10 8,8 C 7,8 C 88 % 1014,8 hPa 0,0 l/m 1,6 km/h (1 Bft) SW 225 0 min 4,8 km/h (1 Bft)
26.05.2019 02:05 8,8 C 7,8 C 88 % 1014,8 hPa 0,0 l/m 3,2 km/h (1 Bft) SW 225 0 min 6,4 km/h (2 Bft)
26.05.2019 02:00 8,9 C 7,8 C 87 % 1014,8 hPa 0,0 l/m 1,6 km/h (1 Bft) SW 225 0 min 8,0 km/h (2 Bft)
26.05.2019 01:55 8,9 C 7,8 C 87 % 1014,9 hPa 0,0 l/m 3,2 km/h (1 Bft) SW 225 0 min 8,0 km/h (2 Bft)
26.05.2019 01:50 9,0 C 8,3 C 87 % 1014,9 hPa 0,0 l/m 3,2 km/h (1 Bft) SW 225 0 min 8,0 km/h (2 Bft)
26.05.2019 01:45 9,1 C 8,3 C 87 % 1015,0 hPa 0,0 l/m 3,2 km/h (1 Bft) SW 225 0 min 8,0 km/h (2 Bft)
26.05.2019 01:40 9,2 C 8,3 C 87 % 1015,1 hPa 0,0 l/m 1,6 km/h (1 Bft) SW 225 0 min 4,8 km/h (1 Bft)
26.05.2019 01:35 9,2 C 8,3 C 86 % 1015,1 hPa 0,0 l/m 1,6 km/h (1 Bft) SW 225 0 min 9,7 km/h (2 Bft)
26.05.2019 01:30 9,3 C 8,3 C 86 % 1015,2 hPa 0,0 l/m 1,6 km/h (1 Bft) W-SW 247 0 min 4,8 km/h (1 Bft)
26.05.2019 01:25 9,3 C 8,3 C 86 % 1015,3 hPa 0,0 l/m 1,6 km/h (1 Bft) SW 225 0 min 4,8 km/h (1 Bft)
26.05.2019 01:20 9,4 C 8,3 C 85 % 1015,3 hPa 0,0 l/m 1,6 km/h (1 Bft) W-SW 247 0 min 6,4 km/h (2 Bft)
26.05.2019 01:15 9,4 C 8,3 C 85 % 1015,3 hPa 0,0 l/m 1,6 km/h (1 Bft) W-SW 247 0 min 6,4 km/h (2 Bft)
26.05.2019 01:10 9,5 C 8,9 C 85 % 1015,3 hPa 0,0 l/m 1,6 km/h (1 Bft) W-SW 247 0 min 6,4 km/h (2 Bft)
26.05.2019 01:05 9,6 C 8,9 C 85 % 1015,3 hPa 0,0 l/m 1,6 km/h (1 Bft) W-NW 292 0 min 8,0 km/h (2 Bft)
26.05.2019 01:00 9,6 C 8,9 C 85 % 1015,3 hPa 0,0 l/m 1,6 km/h (1 Bft) W 270 0 min 4,8 km/h (1 Bft)
26.05.2019 00:55 9,6 C 8,9 C 84 % 1015,5 hPa 0,0 l/m 1,6 km/h (1 Bft) W 270 0 min 3,2 km/h (1 Bft)
26.05.2019 00:50 9,7 C 8,9 C 84 % 1015,5 hPa 0,0 l/m 1,6 km/h (1 Bft) W-NW 292 0 min 6,4 km/h (2 Bft)
26.05.2019 00:45 9,7 C 8,9 C 84 % 1015,5 hPa 0,0 l/m 1,6 km/h (1 Bft) W-SW 247 0 min 8,0 km/h (2 Bft)
26.05.2019 00:40 9,8 C 8,9 C 84 % 1015,6 hPa 0,0 l/m 1,6 km/h (1 Bft) W-SW 247 0 min 6,4 km/h (2 Bft)
26.05.2019 00:35 9,8 C 9,4 C 84 % 1015,6 hPa 0,0 l/m 1,6 km/h (1 Bft) SW 225 0 min 8,0 km/h (2 Bft)
26.05.2019 00:30 9,8 C 8,9 C 84 % 1015,7 hPa 0,0 l/m 1,6 km/h (1 Bft) W 270 0 min 6,4 km/h (2 Bft)
26.05.2019 00:25 9,8 C 8,9 C 84 % 1015,8 hPa 0,0 l/m 1,6 km/h (1 Bft) W-SW 247 0 min 9,7 km/h (2 Bft)
26.05.2019 00:20 9,8 C 8,9 C 84 % 1015,8 hPa 0,0 l/m 1,6 km/h (1 Bft) W 270 0 min 9,7 km/h (2 Bft)
26.05.2019 00:15 9,9 C 8,9 C 84 % 1015,8 hPa 0,0 l/m 1,6 km/h (1 Bft) W-NW 292 0 min 6,4 km/h (2 Bft)
26.05.2019 00:10 10,0 C 9,4 C 83 % 1015,8 hPa 0,0 l/m 3,2 km/h (1 Bft) SW 225 0 min 8,0 km/h (2 Bft)
26.05.2019 00:05 10,0 C 9,4 C 84 % 1015,8 hPa 0,0 l/m 3,2 km/h (1 Bft) SW 225 0 min 8,0 km/h (2 Bft)
26.05.2019 00:00 9,9 C 9,4 C 84 % 1015,9 hPa 0,0 l/m 1,6 km/h (1 Bft) W-SW 247 0 min 4,8 km/h (1 Bft)
_ Min-Zeit 02:30 02:20 00:10 02:50 - 02:30 - - - 02:35
Minimum _ 8,4 C 7,2 C 83 % 1014,1 hPa - 0,0 km/h (0 Bft) - - - 0,0 km/h (0 Bft)
_ Max-Zeit 00:05 00:00 02:45 00:00 00:00 00:05 - - 00:00 00:20
Maximum _ 10,0 C 9,4 C 90 % 1015,9 hPa 0,0 l/m 3,2 km/h
SW (1 Bft)
- - 0 min 9,7 km/h
W (2 Bft)
Durchschnitt _ 9,3 C 8,4 C 86 % 1015,1 hPa #0,0 l/m 1,6 km/h (1 Bft) SW - #0 min. 5,9 km/h (2 Bft)